| time (UTC) | temp C | wind direction | speed KPH | gust KPH | rain 1hr cm | rain 24hr cm | rain mn cm | humidity % | barometer mb |
| 20260504151007 | 18 | 240 | 1.6 | 8.0 | 0.00 | 0.00 | 0.00 | 39 | 1013.8 |
| 20260504150511 | 18 | 268 | 1.6 | 8.0 | 0.00 | 0.00 | 0.00 | 43 | 1013.8 |
| 20260504141008 | 16 | 215 | 3.2 | 9.7 | 0.00 | 0.00 | 0.00 | 47 | 1014.2 |
| 20260504140508 | 16 | 213 | 1.6 | 3.2 | 0.00 | 0.00 | 0.00 | 48 | 1014.2 |
| 20260504130504 | 13 | 225 | 1.6 | 6.4 | 0.00 | 0.00 | 0.00 | 52 | 1014.7 |
| 20260504110506 | 8 | 176 | 0.0 | 3.2 | 0.00 | 0.00 | 0.00 | 75 | 1015.3 |
| 20260504100503 | 8 | 176 | 0.0 | 3.2 | 0.00 | 0.00 | 0.00 | 73 | 1014.9 |
| 20260504082006 | 8 | 98 | 0.0 | 0.0 | 0.00 | 0.00 | 0.00 | 72 | 1015.4 |
| 20260504081522 | 8 | 98 | 0.0 | 0.0 | 0.00 | 0.00 | 0.00 | 71 | 1015.4 |
| 20260504081011 | 8 | 98 | 0.0 | 0.0 | 0.00 | 0.00 | 0.00 | 70 | 1015.4 |
| 20260504080511 | 8 | 98 | 0.0 | 0.0 | 0.00 | 0.00 | 0.00 | 70 | 1015.4 |
| 20260504050505 | 7 | 98 | 0.0 | 0.0 | 0.00 | 0.00 | 0.00 | 72 | 1015.7 |
| 20260504050020 | 8 | 98 | 0.0 | 0.0 | 0.00 | 0.00 | 0.00 | 72 | 1015.6 |
| 20260504045505 | 8 | 98 | 0.0 | 0.0 | 0.00 | 0.00 | 0.00 | 71 | 1015.6 |
| 20260504045005 | 8 | 98 | 0.0 | 0.0 | 0.00 | 0.00 | 0.00 | 71 | 1015.6 |
| 20260504044506 | 7 | 98 | 0.0 | 0.0 | 0.00 | 0.00 | 0.00 | 72 | 1015.5 |
| 20260504044003 | 7 | 98 | 0.0 | 0.0 | 0.00 | 0.00 | 0.00 | 73 | 1015.6 |
| 20260504043503 | 7 | 98 | 0.0 | 0.0 | 0.00 | 0.00 | 0.00 | 74 | 1015.5 |
| 20260504043004 | 6 | 98 | 0.0 | 0.0 | 0.00 | 0.00 | 0.00 | 74 | 1015.5 |
| 20260504042504 | 6 | 98 | 0.0 | 0.0 | 0.00 | 0.00 | 0.00 | 75 | 1015.5 |
| 20260504042003 | 6 | 98 | 0.0 | 0.0 | 0.00 | 0.00 | 0.00 | 75 | 1015.4 |
| 20260504041510 | 6 | 98 | 0.0 | 0.0 | 0.00 | 0.00 | 0.00 | 75 | 1015.5 |
| 20260504041003 | 6 | 98 | 0.0 | 0.0 | 0.00 | 0.00 | 0.00 | 74 | 1015.4 |
| 20260504040504 | 6 | 98 | 0.0 | 0.0 | 0.00 | 0.00 | 0.00 | 73 | 1015.4 |
| 20260504040010 | 6 | 98 | 0.0 | 0.0 | 0.00 | 0.00 | 0.00 | 73 | 1015.5 |
| 20260504035507 | 6 | 98 | 0.0 | 0.0 | 0.00 | 0.00 | 0.00 | 72 | 1015.5 |
| 20260504035004 | 6 | 98 | 0.0 | 0.0 | 0.00 | 0.00 | 0.00 | 72 | 1015.6 |
| 20260504034510 | 6 | 98 | 0.0 | 0.0 | 0.00 | 0.00 | 0.00 | 72 | 1015.5 |
| 20260504034007 | 6 | 98 | 0.0 | 0.0 | 0.00 | 0.00 | 0.00 | 72 | 1015.5 |
| 20260504033507 | 6 | 98 | 0.0 | 0.0 | 0.00 | 0.00 | 0.00 | 71 | 1015.4 |
| 20260504033013 | 6 | 98 | 0.0 | 0.0 | 0.00 | 0.00 | 0.00 | 70 | 1015.4 |
| 20260504032503 | 6 | 98 | 0.0 | 0.0 | 0.00 | 0.00 | 0.00 | 71 | 1015.4 |
| 20260504032006 | 6 | 98 | 0.0 | 0.0 | 0.00 | 0.00 | 0.00 | 70 | 1015.3 |
| 20260504031508 | 6 | 98 | 0.0 | 0.0 | 0.00 | 0.00 | 0.00 | 69 | 1015.4 |
| 20260504031003 | 6 | 98 | 0.0 | 0.0 | 0.00 | 0.00 | 0.00 | 69 | 1015.5 |
| 20260504030508 | 7 | 98 | 0.0 | 0.0 | 0.00 | 0.00 | 0.00 | 68 | 1015.5 |
| 20260504030011 | 7 | 98 | 0.0 | 1.6 | 0.00 | 0.00 | 0.00 | 66 | 1015.4 |
| 20260504025505 | 7 | 98 | 0.0 | 3.2 | 0.00 | 0.00 | 0.00 | 65 | 1015.4 |
| 20260504025006 | 7 | 98 | 0.0 | 3.2 | 0.00 | 0.00 | 0.00 | 66 | 1015.3 |
| 20260504024514 | 7 | 98 | 0.0 | 1.6 | 0.00 | 0.00 | 0.00 | 64 | 1015.2 |
| 20260504024007 | 7 | 98 | 0.0 | 0.0 | 0.00 | 0.00 | 0.00 | 64 | 1015.2 |
| 20260504023507 | 7 | 98 | 0.0 | 0.0 | 0.00 | 0.00 | 0.00 | 63 | 1015.2 |
| 20260504023012 | 7 | 98 | 0.0 | 0.0 | 0.00 | 0.00 | 0.00 | 63 | 1015.2 |
| 20260504022509 | 7 | 98 | 0.0 | 0.0 | 0.00 | 0.00 | 0.00 | 63 | 1015.2 |
| 20260504022007 | 7 | 98 | 0.0 | 3.2 | 0.00 | 0.00 | 0.00 | 63 | 1015.1 |
| 20260504021516 | 7 | 98 | 0.0 | 3.2 | 0.00 | 0.00 | 0.00 | 61 | 1015.2 |
| 20260504021007 | 8 | 98 | 0.0 | 3.2 | 0.00 | 0.00 | 0.00 | 60 | 1015.2 |
| 20260504020503 | 8 | 98 | 0.0 | 3.2 | 0.00 | 0.00 | 0.00 | 59 | 1015.1 |
| 20260504020008 | 8 | 104 | 0.0 | 3.2 | 0.00 | 0.00 | 0.00 | 59 | 1015.1 |
| 20260504015504 | 8 | 192 | 0.0 | 1.6 | 0.00 | 0.00 | 0.00 | 59 | 1015.1 |
| 20260504015006 | 8 | 192 | 0.0 | 1.6 | 0.00 | 0.00 | 0.00 | 58 | 1015.0 |
| 20260504014513 | 8 | 192 | 0.0 | 1.6 | 0.00 | 0.00 | 0.00 | 55 | 1014.9 |
| 20260504014005 | 8 | 192 | 0.0 | 3.2 | 0.00 | 0.00 | 0.00 | 55 | 1014.9 |
| 20260504013506 | 8 | 192 | 0.0 | 3.2 | 0.00 | 0.00 | 0.00 | 55 | 1014.9 |
| 20260504013018 | 9 | 192 | 0.0 | 3.2 | 0.00 | 0.00 | 0.00 | 54 | 1014.7 |
| 20260504012507 | 9 | 192 | 0.0 | 0.0 | 0.00 | 0.00 | 0.00 | 54 | 1014.6 |
| 20260504012008 | 9 | 192 | 0.0 | 0.0 | 0.00 | 0.00 | 0.00 | 52 | 1014.7 |
| 20260504011515 | 9 | 192 | 0.0 | 0.0 | 0.00 | 0.00 | 0.00 | 53 | 1014.7 |
| 20260504011005 | 10 | 192 | 0.0 | 3.2 | 0.00 | 0.00 | 0.00 | 52 | 1014.7 |
| 20260504010506 | 10 | 192 | 0.0 | 3.2 | 0.00 | 0.00 | 0.00 | 51 | 1014.7 |
| 20260504010015 | 10 | 192 | 0.0 | 1.6 | 0.00 | 0.00 | 0.00 | 49 | 1014.7 |
| 20260504005506 | 10 | 192 | 0.0 | 3.2 | 0.00 | 0.00 | 0.00 | 49 | 1014.7 |
| 20260504005003 | 10 | 192 | 0.0 | 3.2 | 0.00 | 0.00 | 0.00 | 48 | 1014.6 |
| 20260504004510 | 11 | 192 | 0.0 | 3.2 | 0.00 | 0.00 | 0.00 | 48 | 1014.6 |
| 20260504004008 | 11 | 192 | 0.0 | 0.0 | 0.00 | 0.00 | 0.00 | 45 | 1014.5 |
| 20260504003508 | 11 | 192 | 0.0 | 1.6 | 0.00 | 0.00 | 0.00 | 43 | 1014.5 |
| 20260504003016 | 12 | 192 | 0.0 | 1.6 | 0.00 | 0.00 | 0.00 | 41 | 1014.5 |
| 20260504002507 | 12 | 192 | 0.0 | 3.2 | 0.00 | 0.00 | 0.00 | 40 | 1014.4 |
| 20260504002006 | 12 | 192 | 0.0 | 3.2 | 0.00 | 0.00 | 0.00 | 39 | 1014.4 |
| 20260504001518 | 12 | 192 | 0.0 | 0.0 | 0.00 | 0.00 | 0.00 | 39 | 1014.4 |
| 20260504001008 | 13 | 192 | 0.0 | 3.2 | 0.00 | 0.00 | 0.00 | 37 | 1014.3 |
| 20260504000506 | 14 | 192 | 0.0 | 3.2 | 0.00 | 0.00 | 0.00 | 35 | 1014.3 |
| 20260504000044 | 15 | 192 | 0.0 | 3.2 | 0.00 | 0.00 | 0.00 | 30 | 1014.3 |
| 20260503235509 | 15 | 187 | 0.0 | 1.6 | 0.00 | 0.00 | 0.00 | 29 | 1014.2 |
| 20260503235008 | 15 | 184 | 0.0 | 3.2 | 0.00 | 0.00 | 0.00 | 30 | 1014.2 |
| 20260503234518 | 16 | 231 | 1.6 | 4.8 | 0.00 | 0.00 | 0.00 | 28 | 1014.2 |
| 20260503234007 | 16 | 229 | 1.6 | 4.8 | 0.00 | 0.00 | 0.00 | 28 | 1014.2 |
| 20260503233510 | 16 | 252 | 1.6 | 4.8 | 0.00 | 0.00 | 0.00 | 28 | 1014.1 |
| 20260503233016 | 16 | 237 | 3.2 | 4.8 | 0.00 | 0.00 | 0.00 | 27 | 1014.1 |
| 20260503232505 | 16 | 237 | 0.0 | 4.8 | 0.00 | 0.00 | 0.00 | 28 | 1014.1 |
| 20260503232006 | 16 | 259 | 1.6 | 4.8 | 0.00 | 0.00 | 0.00 | 27 | 1014.0 |
| 20260503231520 | 16 | 263 | 1.6 | 6.4 | 0.00 | 0.00 | 0.00 | 27 | 1014.0 |
| 20260503231006 | 16 | 312 | 0.0 | 6.4 | 0.00 | 0.00 | 0.00 | 28 | 1014.0 |
| 20260503230506 | 16 | 338 | 1.6 | 6.4 | 0.00 | 0.00 | 0.00 | 28 | 1014.0 |
| 20260503230020 | 16 | 229 | 1.6 | 9.7 | 0.00 | 0.00 | 0.00 | 27 | 1014.0 |
| 20260503225510 | 16 | 235 | 3.2 | 9.7 | 0.00 | 0.00 | 0.00 | 26 | 1014.0 |
| 20260503225006 | 16 | 235 | 1.6 | 8.0 | 0.00 | 0.00 | 0.00 | 26 | 1014.0 |
| 20260503224508 | 16 | 266 | 1.6 | 9.7 | 0.00 | 0.00 | 0.00 | 26 | 1014.1 |
| 20260503224006 | 16 | 36 | 3.2 | 9.7 | 0.00 | 0.00 | 0.00 | 26 | 1014.1 |
| 20260503223504 | 16 | 248 | 4.8 | 9.7 | 0.00 | 0.00 | 0.00 | 25 | 1014.2 |
| 20260503223016 | 16 | 24 | 1.6 | 6.4 | 0.00 | 0.00 | 0.00 | 26 | 1014.1 |
| 20260503222507 | 16 | 248 | 1.6 | 6.4 | 0.00 | 0.00 | 0.00 | 26 | 1014.1 |
| 20260503222008 | 17 | 258 | 3.2 | 9.7 | 0.00 | 0.00 | 0.00 | 27 | 1014.1 |
| 20260503221517 | 17 | 24 | 3.2 | 9.7 | 0.00 | 0.00 | 0.00 | 26 | 1014.0 |
| 20260503221009 | 16 | 232 | 3.2 | 9.7 | 0.00 | 0.00 | 0.00 | 26 | 1014.1 |
| 20260503220502 | 17 | 231 | 3.2 | 14.5 | 0.00 | 0.00 | 0.00 | 26 | 1014.1 |
| 20260503220002 | 16 | 200 | 4.8 | 14.5 | 0.00 | 0.00 | 0.00 | 25 | 1014.2 |
| 20260503215501 | 16 | 262 | 6.4 | 12.9 | 0.00 | 0.00 | 0.00 | 25 | 1014.1 |
| 20260503215002 | 16 | 228 | 6.4 | 12.9 | 0.00 | 0.00 | 0.00 | 25 | 1014.1 |
| 20260503214506 | 16 | 238 | 1.6 | 12.9 | 0.00 | 0.00 | 0.00 | 26 | 1014.1 |
| 20260503214005 | 16 | 348 | 4.8 | 12.9 | 0.00 | 0.00 | 0.00 | 26 | 1014.2 |
| 20260503213509 | 16 | 283 | 4.8 | 12.9 | 0.00 | 0.00 | 0.00 | 26 | 1014.2 |
| 20260503213012 | 16 | 252 | 4.8 | 12.9 | 0.00 | 0.00 | 0.00 | 27 | 1014.2 |
| 20260503212504 | 16 | 360 | 4.8 | 12.9 | 0.00 | 0.00 | 0.00 | 27 | 1014.2 |
| 20260503212007 | 16 | 333 | 3.2 | 8.0 | 0.00 | 0.00 | 0.00 | 28 | 1014.1 |
| 20260503211517 | 16 | 248 | 1.6 | 8.0 | 0.00 | 0.00 | 0.00 | 27 | 1014.1 |
| 20260503211007 | 17 | 265 | 1.6 | 8.0 | 0.00 | 0.00 | 0.00 | 28 | 1014.2 |
| 20260503210511 | 16 | 229 | 3.2 | 9.7 | 0.00 | 0.00 | 0.00 | 28 | 1014.1 |
| 20260503210020 | 16 | 14 | 3.2 | 9.7 | 0.00 | 0.00 | 0.00 | 28 | 1014.2 |
| 20260503205504 | 16 | 216 | 3.2 | 8.0 | 0.00 | 0.00 | 0.00 | 28 | 1014.2 |
| 20260503205002 | 16 | 220 | 1.6 | 8.0 | 0.00 | 0.00 | 0.00 | 29 | 1014.3 |
| 20260503204506 | 16 | 242 | 3.2 | 14.5 | 0.00 | 0.00 | 0.00 | 28 | 1014.3 |
| 20260503204005 | 16 | 268 | 4.8 | 14.5 | 0.00 | 0.00 | 0.00 | 29 | 1014.4 |
| 20260503203504 | 16 | 292 | 4.8 | 12.9 | 0.00 | 0.00 | 0.00 | 29 | 1014.4 |
| 20260503203018 | 16 | 245 | 6.4 | 16.1 | 0.00 | 0.00 | 0.00 | 28 | 1014.3 |
| 20260503202506 | 16 | 5 | 4.8 | 16.1 | 0.00 | 0.00 | 0.00 | 28 | 1014.3 |
| 20260503202007 | 16 | 229 | 6.4 | 14.5 | 0.00 | 0.00 | 0.00 | 29 | 1014.4 |
| 20260503201514 | 16 | 331 | 4.8 | 12.9 | 0.00 | 0.00 | 0.00 | 29 | 1014.4 |
| 20260503201007 | 16 | 321 | 3.2 | 12.9 | 0.00 | 0.00 | 0.00 | 29 | 1014.6 |
| 20260503200507 | 16 | 257 | 4.8 | 11.3 | 0.00 | 0.00 | 0.00 | 29 | 1014.7 |
| 20260503200018 | 16 | 184 | 3.2 | 11.3 | 0.00 | 0.00 | 0.00 | 28 | 1014.7 |
| 20260503195508 | 16 | 265 | 4.8 | 12.9 | 0.00 | 0.00 | 0.00 | 28 | 1014.9 |
| 20260503195005 | 15 | 318 | 4.8 | 12.9 | 0.00 | 0.00 | 0.00 | 30 | 1014.9 |
| 20260503194507 | 16 | 263 | 3.2 | 14.5 | 0.00 | 0.00 | 0.00 | 31 | 1015.1 |
| 20260503194003 | 16 | 214 | 4.8 | 14.5 | 0.00 | 0.00 | 0.00 | 29 | 1014.9 |
| 20260503193505 | 16 | 184 | 4.8 | 11.3 | 0.00 | 0.00 | 0.00 | 30 | 1014.8 |
| 20260503193009 | 16 | 211 | 3.2 | 19.3 | 0.00 | 0.00 | 0.00 | 31 | 1015.1 |
| 20260503192501 | 15 | 248 | 4.8 | 19.3 | 0.00 | 0.00 | 0.00 | 31 | 1015.3 |
| 20260503192002 | 15 | 238 | 1.6 | 8.0 | 0.00 | 0.00 | 0.00 | 30 | 1015.2 |
| 20260503191502 | 15 | 231 | 4.8 | 14.5 | 0.00 | 0.00 | 0.00 | 30 | 1015.2 |
| 20260503191002 | 15 | 250 | 3.2 | 17.7 | 0.00 | 0.00 | 0.00 | 31 | 1015.4 |
| 20260503190502 | 15 | 239 | 4.8 | 17.7 | 0.00 | 0.00 | 0.00 | 31 | 1015.4 |
| 20260503190005 | 15 | 219 | 4.8 | 14.5 | 0.00 | 0.00 | 0.00 | 31 | 1015.5 |
| 20260503185503 | 15 | 229 | 3.2 | 14.5 | 0.00 | 0.00 | 0.00 | 33 | 1015.4 |
| 20260503185003 | 15 | 236 | 6.4 | 14.5 | 0.00 | 0.00 | 0.00 | 31 | 1015.6 |
| 20260503184504 | 15 | 37 | 4.8 | 20.9 | 0.00 | 0.00 | 0.00 | 32 | 1015.6 |
| 20260503184007 | 15 | 321 | 4.8 | 20.9 | 0.00 | 0.00 | 0.00 | 31 | 1015.8 |
| 20260503183504 | 15 | 337 | 4.8 | 12.9 | 0.00 | 0.00 | 0.00 | 31 | 1015.9 |
| 20260503183004 | 15 | 229 | 3.2 | 12.9 | 0.00 | 0.00 | 0.00 | 33 | 1015.9 |
| 20260503182502 | 15 | 298 | 6.4 | 12.9 | 0.00 | 0.00 | 0.00 | 32 | 1016.1 |
| 20260503182006 | 13 | 241 | 4.8 | 12.9 | 0.00 | 0.00 | 0.00 | 33 | 1016.0 |
| 20260503181508 | 14 | 286 | 4.8 | 12.9 | 0.00 | 0.00 | 0.00 | 31 | 1016.0 |
| 20260503181003 | 14 | 271 | 3.2 | 16.1 | 0.00 | 0.00 | 0.00 | 34 | 1016.0 |
| 20260503180505 | 13 | 250 | 4.8 | 17.7 | 0.00 | 0.00 | 0.00 | 34 | 1016.2 |
| 20260503180003 | 13 | 277 | 9.7 | 17.7 | 0.00 | 0.00 | 0.00 | 33 | 1016.2 |
| 20260503175504 | 14 | 230 | 3.2 | 16.1 | 0.00 | 0.00 | 0.00 | 33 | 1016.2 |
| 20260503175003 | 13 | 240 | 4.8 | 16.1 | 0.00 | 0.00 | 0.00 | 33 | 1016.2 |
| 20260503174508 | 14 | 26 | 3.2 | 17.7 | 0.00 | 0.00 | 0.00 | 34 | 1016.2 |
| 20260503174007 | 13 | 345 | 4.8 | 19.3 | 0.00 | 0.00 | 0.00 | 33 | 1016.2 |
| 20260503173503 | 13 | 272 | 6.4 | 19.3 | 0.00 | 0.00 | 0.00 | 35 | 1016.3 |
| 20260503173013 | 13 | 228 | 6.4 | 17.7 | 0.00 | 0.00 | 0.00 | 32 | 1016.2 |
| 20260503172504 | 13 | 32 | 6.4 | 17.7 | 0.00 | 0.00 | 0.00 | 32 | 1016.2 |
| 20260503172005 | 13 | 204 | 6.4 | 12.9 | 0.00 | 0.00 | 0.00 | 33 | 1016.3 |
| 20260503171508 | 13 | 288 | 6.4 | 12.9 | 0.00 | 0.00 | 0.00 | 34 | 1016.5 |
| 20260503171006 | 12 | 261 | 1.6 | 14.5 | 0.00 | 0.00 | 0.00 | 33 | 1016.4 |
| 20260503170506 | 13 | 232 | 4.8 | 14.5 | 0.00 | 0.00 | 0.00 | 34 | 1016.6 |